Showing default

KINEIS-1B, 60079

Orbit data source: Space-Track

KINEIS-1B, 60079 is a French payload satellite in SSO that was launched on Thu, 20 Jun 2024 UTC via an ELECTRON launch vehicle from the Rocket Lab Launch Complex (RLLC). Payloads include a variety of satellites, spacecraft, and rockets equipped with specific instruments for various scientific and technological missions. These include communications satellites like Starlink; space stations such as the ISS; scientific satellites like the Hubble; Earth observation satellites from companies like Planet Labs, Umbra, and HawkEye 360; GPS; miniature CubeSats for education and research; and military/defense satellites.

Loading next visibility...
KINEIS-1B details
Identifier
60079, 2024-114A
Orbit
SSO
Last TLE update3 hours ago
Origin
Flag of FRKINEIS (FR)
ManufacturerKINEIS
MissionOperational Commercial Communications
Bus & MotorCUBESAT 16U, Unknown motor
Mass28 kg wet, 28 kg dry
Launch date (UTC)
2024-06-20 (6 months ago)
Launch vehicle
ELECTRON
Launch site
Rocket Lab Launch Complex (RLLC)
Object type
Payload
Rocket body
Debris
Shape & HBRBox + 2 Pan + 1 Ant, 1.6 m
Radar Cross Section0.229 m², Medium (>0.1 m² and < 1m²)

Expand to show TLE details & history

TLE from 3 hours ago
0 KINEIS-1B
1 60079U 24114A   24356.51177034  .00002145  00000-0  29917-3 0  9995
2 60079  98.0210  11.6341 0003880  67.6222 292.5400 14.78744465 27140
Epoch: 2024-12-21T12:16Z
Definitive object data (Epoch: 2024-12-21T12:16:56.957Z)
Latitude0.00001°
Longitude96.83491°
Altitude635.264 km
Speed7.541 km/s
True Right ascension00h 46m 32s
True Declination0° 00' 00"
Sunlit
Object was in daylight at TLE epoch
Visualization TLE readout
Latitude-77.44077°
Longitude135.93963°
Altitude663.281 km
Speed7.523 km/s
Apparent Right ascension02h 29m 04s
Apparent Declination-59° 42' 46"
Sunlit
Object is in daylight
Visualization observer readout
Local Sidereal Time14:12:20
Azimuth186.189° SSW
Elevation-70.029°
Doppler factor1
Orbital elements
Apogee altitude633.057 km
Perigee altitude627.619 km
Semi-major axis7,008.475 km
Eccentricity0.000388
Inclination98.021°
RAAN11.6341°
Arg. of periapsis67.6222°
True anomaly292.49893°
Mean anomaly292.54°
Eccentric anomaly292.51946°
Mean motion3.6992 °/min
BSTAR0.00029917
Orbital period97.32 mins
Loading maneuver chart data...
Loading historical data...
Loading historical data...
Loading historical data...
Loading historical data...
Loading historical data...
Loading historical data...
Loading historical data...

KINEIS-1B Visibility forecast

Observer location: undefined°, undefined

Span
Click to sort rows by Start time (UTC) header in descending order
Start Az.
Max El. time (UTC)
Max El. Az.
Max El.
End time (UTC)
End Az.
7 mins2024-12-22 01:24:05.133Z176.187° S2024-12-22 01:27:05.133Z239.583° WSW43.178°2024-12-22 01:31:05.133Z341.811° N
5 mins2024-12-22 13:15:05.133Z64.334° ENE2024-12-22 13:17:05.133Z102.248° ESE20.313°2024-12-22 13:20:05.133Z145.762° SSE
5 mins2024-12-22 14:51:05.133Z334.331° NNW2024-12-22 14:53:05.133Z290.096° WNW27.459°2024-12-22 14:56:05.133Z234.405° WSW
|